Location: Menard
(37.9101°N, 89.8398°W)
Time: 07:22:52
(UTC+00:00)

BlueWalker 3 - Visible Passes

Search period start: 19 April 2025 00:00
Search period end: 29 April 2025 00:00
Orbit: 465 x 473 km, 53.2° (Epoch: 18 April)

Date Brightness Start Highest point End Pass type
(mag) Time Alt. Az. Time Alt. Az. Time Alt. Az.
19 Apr 4.5 08:23:33 18° ENE 08:23:33 18° ENE 08:24:37 10° ENE visible
19 Apr 3.5 09:57:32 18° WNW 09:59:00 23° NNW 10:02:00 10° NNE visible
20 Apr 3.2 09:27:11 26° NW 09:27:29 26° NNW 09:30:39 10° NNE visible
21 Apr 3.5 08:56:46 28° N 08:56:46 28° N 08:59:16 10° NNE visible
22 Apr 4.2 08:26:17 21° NNE 08:26:17 21° NNE 08:27:51 10° NNE visible
22 Apr 4.6 10:02:31 10° NNW 10:03:05 10° NNW 10:03:39 10° N visible
23 Apr 4.9 07:55:45 14° NNE 07:55:45 14° NNE 07:56:25 10° NE visible
23 Apr 4.5 09:30:16 10° NW 09:31:27 11° NNW 09:32:38 10° N visible
24 Apr 4.5 08:59:08 12° NNW 08:59:47 12° NNW 09:01:23 10° N visible
25 Apr 4.6 08:28:30 13° NNW 08:28:30 13° NNW 08:30:04 10° N visible
26 Apr 4.9 07:57:49 13° N 07:57:49 13° N 07:58:41 10° NNE visible
27 Apr 5.2 07:27:06 11° NNE 07:27:06 11° NNE 07:27:15 10° NNE visible
